GW1942 Weather Reports


time (UTC)temp
F
wind
direction
speed
knots
gust
knots
rain 1hr
in
rain 24hr
in
rain mn
in
humidity
%
barometer
mb
20260507111545 45 130 0.0 0.9 0.00 0.03 0.01 93 1011.6
20260507110039 46 295 0.0 0.9 0.00 0.03 0.01 94 1011.4
20260507104539 46 45 0.0 0.9 0.00 0.03 0.01 94 1011.2
20260507103036 46 118 0.0 0.9 0.00 0.03 0.01 94 1011.0
20260507101541 47 114 0.0 0.9 0.00 0.03 0.01 94 1011.0
20260507100035 47 205 0.0 0.0 0.00 0.03 0.01 94 1011.1
20260507094530 48 214 0.0 0.9 0.00 0.03 0.01 95 1011.2
20260507093037 48 120 0.0 0.0 0.00 0.03 0.01 93 1011.2
20260507091526 48 70 0.0 0.0 0.00 0.03 0.01 94 1011.0
20260507090030 49 70 0.0 0.9 0.00 0.03 0.01 91 1010.9
20260507084519 50 65 0.0 0.0 0.00 0.03 0.01 89 1010.8
20260507083032 51 65 0.0 0.0 0.00 0.03 0.01 90 1010.9
20260507081514 52 65 0.0 0.9 0.00 0.03 0.01 90 1010.8
20260507080010 53 65 0.0 0.0 0.00 0.03 0.01 89 1010.7
20260507074523 53 63 0.0 1.7 0.00 0.03 0.01 88 1010.4
20260507073006 54 98 0.0 2.6 0.01 0.03 0.01 85 1010.3
20260507071505 54 106 0.0 2.6 0.01 0.03 0.01 85 1010.2
20260507070005 55 82 1.7 4.3 0.01 0.03 0.01 82 1010.2
20260507064503 56 44 2.6 9.6 0.01 0.03 0.01 78 1009.8
20260507063100 55 107 4.3 6.1 0.00 0.02 0.00 81 1010.2
20260507061554 55 101 2.6 7.0 0.00 0.02 0.00 81 1010.3
20260507060051 56 81 1.7 5.2 0.02 0.02 0.00 81 1010.2
20260507054602 56 319 0.0 5.2 0.02 0.02 0.02 81 1010.6
20260507053052 57 104 1.7 3.5 0.02 0.02 0.02 77 1010.0
20260507051549 59 100 1.7 2.6 0.01 0.01 0.01 68 1009.9
20260507050048 61 18 0.9 7.0 0.00 0.00 0.00 57 1009.7
20260507044549 60 98 3.5 5.2 0.00 0.00 0.00 61 1009.4
20260507043048 61 84 0.0 1.7 0.00 0.00 0.00 62 1009.6
20260507041546 61 265 0.9 4.3 0.00 0.00 0.00 60 1009.3
20260507040057 61 78 2.6 0.0 0.00 0.00 0.00 61 1009.3
20260507034554 62 78 2.6 7.0 0.00 0.00 0.00 60 1009.2
20260507033045 63 233 0.0 4.3 0.00 0.00 0.00 58 1009.3
20260507031544 64 62 2.6 4.3 0.00 0.00 0.00 57 1009.1
20260507030043 63 161 0.9 5.2 0.00 0.00 0.00 59 1009.1
20260507024543 63 92 0.9 1.7 0.00 0.00 0.00 60 1009.0
20260507023042 66 75 0.0 1.7 0.00 0.00 0.00 56 1008.8
20260507021545 68 269 0.0 0.9 0.00 0.00 0.00 51 1008.7
20260507020043 68 95 0.0 1.7 0.00 0.00 0.00 52 1008.5
20260507014540 69 202 0.0 2.6 0.00 0.00 0.00 45 1008.6
20260507013040 70 193 0.0 5.2 0.00 0.00 0.00 45 1008.6
20260507011540 71 39 0.9 2.6 0.00 0.00 0.00 44 1008.6
20260507010036 71 27 0.0 3.5 0.00 0.00 0.00 42 1008.9
20260507004535 72 8 0.0 2.6 0.00 0.00 0.00 40 1009.0
20260507003035 73 232 0.0 0.0 0.00 0.00 0.00 38 1009.0
20260507001546 73 274 0.0 2.6 0.00 0.00 0.00 37 1009.1
20260507000031 73 287 0.9 3.5 0.00 0.00 0.00 34 1009.2
20260506234541 74 309 1.7 0.0 0.00 0.00 0.00 34 1009.2
20260506233033 75 298 0.0 7.8 0.00 0.00 0.00 33 1009.2
20260506231534 75 276 0.0 6.1 0.00 0.00 0.00 34 1009.3
20260506230027 76 175 1.7 4.3 0.00 0.00 0.00 32 1009.4
20260506224529 76 2 1.7 6.1 0.00 0.00 0.00 29 1009.4
20260506223024 75 269 0.9 6.1 0.00 0.00 0.00 30 1009.7
20260506221523 75 195 0.9 3.5 0.00 0.00 0.00 30 1009.7
20260506220022 76 204 0.0 3.5 0.00 0.00 0.00 31 1009.8
20260506214520 76 102 0.9 3.5 0.00 0.00 0.00 30 1010.0
20260506213021 76 32 0.0 2.6 0.00 0.00 0.00 29 1010.3
20260506211517 75 197 0.0 2.6 0.00 0.00 0.00 32 1010.4
20260506210012 73 66 0.0 3.5 0.00 0.00 0.00 33 1010.7
20260506204508 73 59 3.5 5.2 0.00 0.00 0.00 30 1010.9
20260506203006 72 53 0.0 3.5 0.00 0.00 0.00 31 1011.1
20260506201502 70 278 0.9 1.7 0.00 0.00 0.00 32 1011.5
20260506200058 68 269 0.0 2.6 0.00 0.00 0.00 33 1011.8
20260506194556 67 39 0.9 3.5 0.00 0.00 0.00 34 1012.2
20260506193054 68 46 0.9 3.5 0.00 0.00 0.00 32 1012.5
20260506191553 67 309 0.9 3.5 0.00 0.00 0.00 33 1012.8
20260506190050 66 282 0.0 2.6 0.00 0.00 0.00 37 1013.2
20260506184553 64 281 0.9 4.3 0.00 0.00 0.00 37 1013.5
20260506183039 62 271 0.0 3.5 0.00 0.00 0.00 38 1013.9
20260506181538 61 356 0.0 3.5 0.00 0.00 0.00 36 1014.0
20260506180035 59 31 0.9 4.3 0.00 0.00 0.00 38 1014.4
20260506174529 58 42 1.7 4.3 0.00 0.00 0.00 38 1014.6
20260506173032 57 323 0.0 3.5 0.00 0.00 0.00 40 1014.9
20260506171524 56 62 0.9 4.3 0.00 0.00 0.00 38 1015.3
20260506170022 55 331 0.9 7.0 0.00 0.00 0.00 41 1015.5
20260506164517 53 301 0.0 2.6 0.00 0.00 0.00 42 1015.7
20260506163031 52 327 1.7 4.3 0.00 0.00 0.00 46 1015.8
20260506161515 52 39 0.0 0.9 0.00 0.00 0.00 48 1015.9
20260506160010 50 301 0.0 3.5 0.00 0.00 0.00 49 1016.2
20260506154522 49 250 0.0 1.7 0.00 0.00 0.00 51 1016.4
20260506153003 48 57 0.0 3.5 0.00 0.00 0.00 53 1016.6
20260506151559 47 321 0.0 1.7 0.00 0.00 0.00 56 1016.7
20260506150056 45 52 0.0 0.9 0.00 0.00 0.00 57 1016.9
20260506144555 44 65 0.9 1.7 0.00 0.00 0.00 58 1017.1
20260506143052 43 63 0.0 0.9 0.00 0.00 0.00 61 1017.2
20260506141550 43 86 0.0 0.9 0.00 0.00 0.00 62 1017.3
20260506140048 41 127 0.0 0.9 0.00 0.00 0.00 67 1017.6
20260506134544 39 134 0.0 0.9 0.00 0.00 0.00 70 1017.5
20260506133047 37 101 0.0 0.0 0.00 0.00 0.00 77 1017.5
20260506131543 33 163 0.0 0.0 0.00 0.00 0.00 82 1017.4
20260506130042 29 163 0.0 0.0 0.00 0.00 0.00 87 1017.5
20260506124544 29 163 0.0 0.9 0.00 0.00 0.00 87 1017.4
20260506123041 29 152 0.0 0.0 0.00 0.00 0.00 87 1017.5
20260506121547 29 153 0.0 0.0 0.00 0.00 0.00 87 1017.4
20260506120040 29 153 0.0 0.0 0.00 0.00 0.00 84 1017.3
20260506114534 30 153 0.0 0.0 0.00 0.00 0.00 85 1017.3
20260506113033 31 148 0.0 0.9 0.00 0.00 0.00 82 1017.4